Weather in Ydzhyd"yag

Russia / Komi Republic     63°27′00″N   48°53′38″E
temp.,
°C
wind,
m/s
gust,
m/s
humid.,
%
clouds,
%
prec.,
mm/h
press.,
hPa
HPBL,
m
13 may, thu
thu1300:00+14w227596 0.0 102333
03:00+13wsw22815 0.0 102420
06:00+16sw256725 0.0 1023177
09:00+22sw35421 0.0 1022707
12:00+24sw47300 0.0 10211686
15:00+25sw57260 0.0 10202097
18:00+24sw37385 0.0 1019643
21:00+19sw4125574 0.0 1018345
14 may, fri
fri1400:00+16sw276799 0.0 1018144
03:00+15ssw247320 0.0 101778
06:00+17sw276595 0.1 1016230
09:00+21ssw3553100 0.1 1015737
12:00+16wsw2479100 0.4 1014230
15:00+16wsw4987100 3.4 1014745
18:00+16w2888100 0.1 1013516
21:00+14wsw21090100 2.1 1014305
15 may, sat
sat1500:00+12wsw28945 0.1 1014154
03:00+11sw259359 0.1 101596
06:00+14wsw277878 0.0 1015226
09:00+18wsw4656100 0.0 1015628
12:00+21wsw4644100 0.0 10151717
15:00+21sw3647100 0.0 10131446
18:00+19s2360100 0.0 1012188
21:00+15sse2686100 0.3 1010203
16 may, sun
sun1600:00+14ese3692100 0.3 1007316
03:00+14sse2599100 2.0 1007213
06:00+15ssw3787100 0.4 1006697
09:00+17ssw5877100 0.5 1006887
12:00+21sw7115591 0.6 10041995
15:00+18wsw61272100 2.3 10051341
18:00+16wsw71380100 1.3 10051246
21:00+13w6148678 1.9 10061041
17 may, mon
mon1700:00+11w51389100 0.0 1009776
03:00+8wnw4990100 0.0 1012607
06:00+8nw3686100 0.0 1013561
09:00+9nw3481100 0.0 1016687
12:00+11nw2373100 0.0 1017856
15:00+12nw2366100 0.1 10181068
18:00+12wnw2469100 0.0 1019493
21:00+10w117998 0.0 102016